Airfield :
LOGIN :

Register | Disclaimer

   EN    FR    IT 

 










Legend :    VFR   Marginal VFR   IFR   Intensive IFR   Very Intensive IFR
Visi :
Ceiling :
>= 8 km
>= 3000ft
5 to 8 km
1000 to 3000 ft
1500m to 5 km
500 to 1000 ft
800 to 1500m
200 to 500 ft
< 800m
< 200 ft
Symbols :   Thunderstorms  Fog  Heavy snow  Heavy precipitations  Wind > 20 kt
SIGMETs :     Misc.  Thunderstorms  Icing  Turbulence  Mountain Waves  Volcanic Ashes







- Airport Elevation : 28 ft
- IATA code : SOZ
- Download approach charts


LFKS - Solenzara

CURRENT METAR :
  • 200600Z AUTO 15003KT 110V220 CAVOK 15/10 Q1006

EXPIRED METARs :
  • 200530Z AUTO VRB03KT CAVOK 14/08 Q1006
  • 200500Z AUTO 26005KT CAVOK 12/07 Q1006
  • 200430Z AUTO 26005KT CAVOK 11/06 Q1006
  • 200400Z AUTO VRB03KT CAVOK 10/07 Q1006
  • 200330Z AUTO 26004KT CAVOK 10/07 Q1006

TAF TAF LFKS
Valid from the 20 at 05:00 until the 21 at 03:00 UTC


200200Z 2005/2103 26005KT CAVOK
TEMPO 2011/2015 -SHRA SCT040 FEW045TCU
PROB30
TEMPO 2020/2103 27015G25KT
No reported NOTAMs for that airfield.



MET'MAP, your aeronautical weather chart ! - Copyright ORBIFLY December 2007 - Disclaimer

ORBIFLY MET'MAP TEAM :

Programming & Development : Alexandra Zaïnal
Concept & Development : Baudouin d'Aumeries
Co-Development & Prog : Marc-Olivier Méhu
Technical & hardware support : Manuel Goepfert

Contact : metmap@orbifly.com




SOURCES & CREDITS :

   NOAA